#timestamp,LO_Frequency,Hit,StdDev 
1657364415.3,286046997.9,N
1657364435.1,286046997.5,N
1657364455.9,286046997.1,N
1657364475.7,286046994.9,Y
1657364495.6,286047000.7,P
1657364515.4,286046998.1,N
1657364535.2,286047000.8,N
1657364555.1,286047002.7,N
1657364556.0,286047002.7,N
1657364575.8,286047002.6,N
1657364595.6,286047000.2,N
1657364615.5,286047000.2,N
1657364635.3,286047000.3,N
1657364655.2,286047001.0,N
1657364675.9,286046998.1,N
1657364695.7,286047001.2,N
1657364715.6,286047000.5,N
1657364735.4,286047000.6,N
1657364755.3,286046998.2,N
1657364775.1,286046998.1,N
1657364776.0,286046998.1,N
1657364795.8,286046998.8,N
1657364815.7,286046998.6,N
1657364835.5,286046998.5,N
1657364855.3,286046998.9,N
1657364875.2,286046999.5,N
1657364895.0,286046996.6,N
1657364895.9,286046996.6,N
1657364915.8,286046999.5,N
1657364935.6,286046999.1,N
1657364955.4,286046998.2,N
1657364975.3,286047001.1,N
1657364995.1,286047001.0,N
1657365015.9,286047000.8,N
1657365035.7,286047002.6,N
1657365055.5,286047002.2,N
1657365075.4,286047001.4,N
1657365095.2,286047001.8,N
1657365115.0,286047001.5,N
1657365115.9,286047001.5,N
1657365135.8,286047002.8,N
1657365155.6,286047002.3,N
1657365175.4,286047000.7,N
1657365195.3,286046998.3,N
1657365215.1,286046998.1,N
1657365235.9,286046999.1,N
1657365255.7,286046998.2,N
1657365275.5,286046999.0,N
1657365295.4,286046998.8,N
1657365315.2,286047000.6,N
1657365335.0,286046998.1,N
1657365336.0,286046998.1,N
1657365355.8,286046998.7,N
1657365375.6,286046996.6,N
1657365395.5,286046999.6,N
1657365415.3,286046999.3,N
1657365435.1,286047000.6,N
1657365455.9,286046998.1,N
1657365475.7,286046998.2,N
1657365495.6,286046998.9,N
1657365515.4,286046998.8,N
1657365535.2,286046998.9,N
1657365555.1,286046996.6,N
1657365556.0,286046996.6,N
1657365575.8,286046999.2,N
1657365595.6,286046996.7,N
1657365615.5,286046996.6,N
1657365635.3,286046999.4,N
1657365685.2,286046999.2,E
1657365695.1,286046999.0,N
1657365715.9,286046998.4,P
1657365735.7,286046998.5,P
1657365755.5,286046998.1,Y
1657365775.4,286046999.7,P
1657365795.2,286047000.3,N
1657365815.0,286047002.8,P
1657365815.9,286047002.8,N
1657365835.8,286047000.4,N
1657365855.6,286047002.8,N
1657365875.5,286047002.3,N
1657365895.3,286047001.9,N
1657365915.1,286047004.0,N
1657365935.9,286047004.1,N
1657365955.7,286047001.4,N
1657365975.6,286047003.6,N
1657365995.4,286047004.0,N
1657366015.2,286047001.3,N
1657366035.1,286047003.7,N
1657366036.0,286047003.7,N
1657366055.8,286047003.4,N
1657366075.6,286047004.2,N
1657366095.5,286047005.6,Y
1657366115.3,286047002.4,P
1657366135.2,286047002.3,P
1657366155.9,286047002.5,P
1657366175.7,286047002.6,Y
1657366195.6,286047001.2,P
1657366215.4,286046998.5,N
1657366235.3,286046999.0,N
1657366255.1,286047000.4,N
1657366256.0,286047000.4,N
1657366275.8,286047000.8,N
1657366295.7,286046999.8,N
1657366315.5,286047000.5,N
1657366335.3,286047001.0,N
1657366355.2,286047000.6,N
1657366375.0,286046999.6,N
1657366375.9,286046999.6,N
1657366395.8,286046999.5,N
1657366415.6,286046999.6,N
1657366435.4,286046998.9,N
1657366455.3,286046998.7,N
1657366475.1,286047000.7,N
1657366495.8,286047000.0,N
1657366515.7,286047000.3,N
1657366535.5,286047000.0,N
1657366555.4,286047000.0,N
1657366575.2,286047000.6,N
1657366595.0,286046999.7,N
1657366595.9,286046999.7,N
1657366615.8,286047001.6,N
1657366635.6,286047002.3,N
1657366655.5,286047002.7,N
1657366675.3,286047002.6,N
1657366695.1,286047000.1,N
1657366715.9,286047000.7,N
1657366735.7,286047000.3,N
1657366755.5,286047000.5,N
1657366775.4,286047002.8,N
1657366795.2,286047000.6,N
1657366815.1,286047000.6,N
1657366816.0,286047000.6,N
1657366835.8,286047000.5,N
1657366855.6,286047000.8,N
1657366875.5,286047000.6,N
1657366895.3,286047000.4,N
1657366915.2,286047000.4,N
1657366935.9,286047002.4,N
1657366955.7,286047001.8,N
1657366975.6,286047001.5,N
1657366995.4,286047004.0,Y
1657367015.3,286047001.5,P
1657367035.1,286047002.5,P
1657367036.0,286047002.5,P
1657367055.8,286047000.0,N
1657367075.7,286047000.9,N
1657367095.5,286047000.5,N
1657367115.3,286047000.3,N
1657367135.2,286047000.0,N
1657367155.0,286046999.7,N
1657367155.9,286046999.7,N
1657367175.8,286047002.6,N
1657367195.6,286047000.1,N
1657367215.4,286047002.4,N
1657367235.3,286047002.0,N
1657367255.1,286047001.5,N
1657367275.9,286047001.8,N
1657367295.7,286047001.3,N
1657367315.5,286047001.6,N
1657367335.4,286047004.4,Y
1657367355.2,286047001.8,P
1657367375.0,286046999.8,N
1657367375.9,286046999.8,N
1657367395.8,286047002.2,N
1657367415.6,286047000.3,N
1657367435.5,286047000.7,N
1657367455.3,286047001.0,N
1657367475.1,286047001.2,N
1657367495.9,286047000.1,N
1657367515.7,286047000.3,N
1657367535.5,286047000.6,N
1657367555.4,286047000.4,N
1657367575.2,286047000.6,N
1657367595.0,286047000.2,N
1657367595.9,286047000.2,N
1657367615.8,286047000.6,N
1657367635.6,286047000.2,N
1657367655.5,286047002.7,Y
1657367675.3,286046999.8,P
1657367695.1,286046999.8,N
1657367715.9,286046998.4,P
1657367735.7,286046998.5,N
1657367755.5,286046999.1,N
1657367775.4,286046997.2,Y
1657367795.2,286046999.0,P
1657367815.1,286046998.9,P
1657367816.0,286046998.9,P
1657367835.8,286047001.2,Y
1657367855.6,286047002.5,P
1657367875.5,286047002.8,N
1657367895.3,286047001.6,N
1657367915.2,286047002.3,N
1657367935.9,286047002.3,N
1657367955.7,286047002.0,N
1657367975.6,286047002.0,N
1657367995.4,286047001.5,N
